Location: Newark
(37.8333°N, 119.5000°W)
Time: 22:18:01
(UTC+00:00)

Tiros 1 despin weight - Pass Details

Date: 25 August 2019
Orbit: 595 x 642 km, 48.2° (Epoch: 15 September)

Event Time Altitude Azimuth Distance (km) Brightness Sun altitude
Rises 10:54:49 0° 305° (NW) 2,866 - -26.5°
Reaches altitude 10° 10:57:16 10° 314° (NW) 1,968 - -26.2°
Exits shadow 10:58:55 20° 328° (NNW) 1,432 ? -25.9°
Maximum altitude 11:01:26 35° 21° (NNE) 1,003 ? -25.5°
Drops below altitude 10° 11:05:38 10° 88° (E) 1,992 ? -24.9°
Sets 11:08:08 0° 97° (E) 2,906 ? -24.5°
